Location: Newark
(7.0858°N, 171.3717°E)
Time: 17:38:48
(UTC+00:00)

Transit 2A - Pass Details

Date: 26 November 2020
Orbit: 598 x 960 km, 66.7° (Epoch: 20 January)

Event Time Altitude Azimuth Distance (km) Brightness Sun altitude
Rises 16:00:01 0° 0° (N) 3,003 - -35.6°
Reaches altitude 10° 16:02:48 10° 15° (NNE) 2,038 - -35.0°
Maximum altitude 16:06:22 23° 67° (ENE) 1,342 - -34.1°
Exits shadow 16:07:14 21° 84° (E) 1,382 7.8 -33.9°
Drops below altitude 10° 16:09:47 10° 119° (ESE) 1,949 8.9 -33.3°
Sets 16:12:23 0° 135° (SE) 2,837 9.9 -32.7°
